PST,Max TemperatureF,Mean TemperatureF,Min TemperatureF,Max Dew PointF,MeanDew PointF,Min DewpointF,Max Humidity, Mean Humidity, Min Humidity, Max Sea Level PressureIn, Mean Sea Level PressureIn, Min Sea Level PressureIn, Max VisibilityMiles, Mean VisibilityMiles, Min VisibilityMiles, Max Wind SpeedMPH, Mean Wind SpeedMPH, Max Gust SpeedMPH,PrecipitationIn, CloudCover, Events, WindDirDegrees
2011-11-1,47,37,26,30,10,-12,72,53,34,30.36,30.12,29.87,10,10,10,29,17,37,0.00,0,,358
2011-11-2,50,36,21,3,-1,-5,40,26,11,30.48,30.39,30.26,10,10,10,12,7,15,0.00,0,,45
2011-11-3,54,37,20,13,2,-6,32,23,13,30.24,29.93,29.59,10,10,7,30,13,39,0.00,1,,133
2011-11-4,42,32,22,27,21,11,85,57,29,29.81,29.66,29.52,10,8,1,25,13,35,T,5,Snow,350
2011-11-5,38,26,13,17,12,8,74,52,29,29.98,29.91,29.80,10,10,10,21,6,33,0.00,2,,346
2011-11-6,38,29,19,27,22,10,92,74,55,30.05,29.94,29.88,10,7,0,14,5,17,0.09,6,Fog-Snow,15
2011-11-7,42,31,20,23,19,16,88,66,44,30.29,30.16,30.02,10,10,10,24,12,30,0.00,3,,356
2011-11-8,44,31,17,18,14,11,77,53,29,30.44,30.35,30.27,10,10,10,17,7,21,0.00,0,,16
2011-11-9,50,34,18,14,12,9,68,44,20,30.55,30.46,30.39,10,10,10,13,7,15,0.00,0,,44
2011-11-10,49,36,22,14,10,8,55,37,19,30.44,30.32,30.16,10,10,10,14,7,17,0.00,0,,36
2011-11-11,47,38,29,30,21,13,70,49,27,30.12,29.99,29.85,10,10,10,17,7,21,T,6,,117
2011-11-12,51,39,26,30,27,22,85,64,42,29.97,29.87,29.80,10,10,10,16,5,20,0.00,1,,170
2011-11-13,55,41,27,31,24,14,85,56,27,29.96,29.93,29.89,10,10,10,32,11,40,0.00,2,,342
2011-11-14,57,42,27,21,14,8,53,36,18,30.01,29.95,29.90,10,10,10,24,11,29,0.00,2,,351
2011-11-15,55,39,22,23,18,9,56,41,26,30.14,30.07,30.01,10,10,10,35,13,41,0.00,0,,356
2011-11-16,54,40,26,24,21,18,69,50,30,30.28,30.23,30.14,10,10,10,15,7,17,0.00,0,,349
2011-11-17,57,41,24,24,21,17,75,50,25,30.26,30.10,29.91,10,10,10,14,7,16,0.00,0,,325
2011-11-18,54,38,21,25,19,10,77,53,28,29.90,29.72,29.60,10,10,10,22,10,26,0.00,0,,324
2011-11-19,46,35,24,25,18,13,78,53,28,29.83,29.78,29.68,10,10,10,16,8,23,0.00,1,,103
2011-11-20,42,35,28,34,29,21,100,78,55,29.99,29.89,29.76,10,9,1,24,9,30,0.03,7,Snow,148
2011-11-21,46,36,26,34,30,24,100,75,49,30.31,30.11,29.99,10,10,10,10,3,12,0.00,4,,333
2011-11-22,48,35,22,30,25,19,92,66,39,30.38,30.31,30.24,10,10,10,14,7,18,0.00,0,,51
2011-11-23,54,40,26,26,22,17,85,55,24,30.22,30.08,29.91,10,10,10,21,7,25,0.00,0,,84
2011-11-24,49,38,26,30,25,20,78,60,42,30.12,30.00,29.89,10,10,10,13,5,14,0.00,0,,320
2011-11-25,55,39,23,26,16,10,81,49,16,30.43,30.27,30.13,10,10,10,29,13,38,0.00,0,,349
2011-11-26,56,41,25,15,11,7,55,35,14,30.60,30.53,30.44,10,10,10,16,7,18,0.00,0,,18
2011-11-27,55,40,25,15,13,11,57,37,16,30.59,30.47,30.39,10,10,10,10,6,20,0.00,0,,19
2011-11-28,54,43,31,15,13,9,45,32,19,30.43,30.35,30.26,10,10,10,13,6,16,0.00,0,,5
2011-11-29,60,43,25,14,11,9,50,32,14,30.40,30.30,30.21,10,10,10,16,7,17,0.00,0,,10
2011-11-30,50,37,24,19,14,11,56,41,26,30.15,30.05,29.96,10,10,10,39,19,49,0.00,1,,356